Flag for Poland Weather past 2 weeks in Gorzów Wielkopolski, Poland

Now
54 °F

Scattered clouds.


Feels Like: 53 °F
Forecast: 39 / 59 °F
Wind: 6 mph from North

Location: Gorzow Wlkp

Current Time: Apr 19, 2015 at 1:28:53 PM

Latest Report: Apr 19, 2015 at 12:00 PM


Visibility: 19 mi

Pressure: 30.18 "Hg

Humidity: 43%

Dew point: 32 °F

Location of Gorzów WielkopolskiLocation

Historic Weather in Gorzów Wielkopolski — Graph

°F

Gorzów Wielkopolski temperature yesterday

Maximum temperature yesterday: 48 °F (at 4:00 PM)
Minimum temperature yesterday: 33 °F (at 6:00 AM)
Average temperature yesterday: 41 °F

Past Weeks' High & Low Weather Summary

 TemperatureHumidityPressure
High71 °F (Apr 11, 2:00 PM)98% (Apr 9, 7:00 AM)30.54 "Hg (Apr 9, 7:00 AM)
Low29 °F (Apr 7, 7:00 AM)27% (Apr 11, 5:00 PM)29.76 "Hg (Apr 15, 11:00 PM)
Average47 °F60%30.18 "Hg
* Reported Apr 4 12:00 Noon — Apr 19 12:00 Noon, Gorzów Wielkopolski, Weather by CustomWeather, © 2015

Note: Actual official high and low records may vary slightly from our data, if they occured in-between our weather recording intervals... More about our weather records

Advertising

Gorzów Wielkopolski weather history for previous 24 hours

 ConditionsComfort  
Time TempWeatherWind HumidityBarometerVisibility
12:00 PM
Sun, Apr 19
54 °FScattered clouds.6 mph43%30.18 "Hg19 mi
11:00 AM52 °FPassing clouds.3 mph46%30.18 "Hg19 mi
10:00 AM50 °FPassing clouds.3 mph46%30.19 "Hg19 mi
9:00 AM43 °FPassing clouds.2 mph68%30.19 "Hg12 mi
8:00 AM37 °FPartly sunny.1 mph82%30.20 "Hg6 mi
7:00 AM32 °FPartly sunny.No wind89%30.20 "Hg19 mi
6:00 AM31 °FScattered clouds.1 mph89%30.19 "Hg12 mi
4:00 AM32 °FPassing clouds.No wind83%30.19 "Hg19 mi
3:00 AM35 °FPassing clouds.2 mph75%30.19 "Hg19 mi
2:00 AM35 °FPassing clouds.2 mph74%30.20 "Hg25 mi
1:00 AM35 °FPassing clouds.1 mph78%30.20 "Hg25 mi
12:00 AM38 °FPassing clouds.1 mph63%30.21 "Hg31 mi
11:00 PM
Sat, Apr 18
40 °FPassing clouds.2 mph55%30.22 "Hg31 mi
10:00 PM41 °FPassing clouds.3 mph51%30.22 "Hg31 mi
9:00 PM43 °FPassing clouds.2 mph49%30.21 "Hg31 mi
8:00 PM46 °FPassing clouds.5 mph46%30.20 "Hg31 mi
7:00 PM48 °FPassing clouds.5 mph38%30.19 "Hg31 mi
6:00 PM47 °FPartly sunny.3 mph48%30.20 "Hg31 mi
5:00 PM48 °FOvercast.5 mph46%30.21 "Hg31 mi
4:00 PM48 °FPartly sunny.5 mph46%30.21 "Hg31 mi
3:00 PM48 °FPartly sunny.5 mph53%30.22 "Hg31 mi
2:00 PM46 °FPartly sunny.5 mph63%30.23 "Hg25 mi
1:00 PM45 °FScattered clouds.5 mph68%30.24 "Hg31 mi
Weather by CustomWeather, © 2015

See weather overviewHow to use our weather pages